User: anonymous
Location: Fort Wayne
(41.1310°N, 85.1290°W)
Time: 21:31:34
(UTC-04:00)
Language:

Gbstr 26 Del rocket - Orbit

View from above orbital plane
View from above orbital plane
View from above satellite
View from above satellite

Ground track
Ground track

The orbit data is extracted from the following two-line orbital elements,

1 25876U 99041E   14259.15740485  .00001038  00000-0  22058-3 0  4623
2 25876 051.7653 318.6121 0540278 341.4992 040.4784 14.02188707773481
Epoch (UTC): 16 September 2014 03:46:39
Eccentricity: 0.0540278
inclination: 51.7653°
perigee height: 494 km
apogee height: 1279 km
right ascension of ascending node: 318.6121°
argument of perigee: 341.4992°
revolutions per day: 14.02188707
mean anomaly at epoch: 40.4784°
orbit number at epoch: 77348

The dashed part of the orbit path shows where the satellite is in the earth's shadow,  

DLR